Regional Weather Roundup
Issued by NWS

Home | Current Version | Previous Version | Text Only | Print | Product List | Glossary Off
Versions: 1 2 3 4 5 6 7 8 9 10 11 12 13 14 15 16 17 18 19 20 21 22 23 24 25 26 27 28 29 30 31 32 33 34 35 36 37 38 39 40 41 42 43 44 45 46 47 48 49 50

000
ASUS43 KFSD 260202
RWRSD

WEATHER ROUNDUP FOR SOUTH DAKOTA
NATIONAL WEATHER SERVICE SIOUX FALLS SD
900 PM CDT FRI JUL 25 2014

NOTE: "FAIR" INDICATES FEW OR NO CLOUDS BELOW 12,000 FEET WITH NO
SIGNIFICANT WEATHER AND/OR OBSTRUCTIONS TO VISIBILITY.


SDZ001>005-009-010-012>017-260300-
NORTHWEST AND NORTH CENTRAL SOUTH DAKOTA

CITY           SKY/WX    TMP DP  RH WIND       PRES   REMARKS
BUFFALO          N/A     74  54  49 SE15      29.79S
FAITH            N/A     77  50  38 SE9       29.87R
MOBRIDGE       CLEAR     72  59  63 NE5       29.80R
$$

SDZ012>016-024>037-041>051-057-063-072>074-260300-
SOUTHWEST AND SOUTH CENTRAL SOUTH DAKOTA

CITY           SKY/WX    TMP DP  RH WIND       PRES   REMARKS
RAPID CTY ARPT PTCLDY    73  57  57 SE8       29.87R
PIERRE         CLEAR     75  57  53 NE6       29.80S
CUSTER         PTCLDY    68  47  46 E7        30.01R
ELLSWORTH AFB  PTCLDY    76  56  49 SE8       29.88R
PHILIP         PTCLDY    81  45  28 SE9       29.84R
PINE RIDGE     PTCLDY    76  57  51 E9        29.87S
WINNER         FAIR      81  68  64 NE6       29.83R
$$

SDZ004>011-016>023-039-040-260300-
NORTHEAST SOUTH DAKOTA

CITY           SKY/WX    TMP DP  RH WIND       PRES   REMARKS
ABERDEEN       CLEAR     72  60  66 NE3       29.81R
WATERTOWN      CLEAR     72  68  87 E3        29.81S
SISSETON         N/A     72  70  93 S3        29.77S
$$

SDZ017-020-022-023-036>040-048>070-260300-
SOUTHEAST SOUTH DAKOTA

CITY           SKY/WX    TMP DP  RH WIND       PRES   REMARKS
SIOUX FALLS    MOCLDY    80  70  71 CALM      29.78R
HURON          CLEAR     74  67  78 NE5       29.81R
CHAMBERLAIN    CLEAR     77  68  73 E6        29.82R
MITCHELL       CLEAR     77  68  73 N8        29.80R
YANKTON        PTCLDY    79  73  83 NE3       29.78R
$$

ABBREVIATIONS USED IN REMARKS
   TC - TEMPERATURE IN CELSIUS
  WCI - WIND CHILL INDEX
   HX - HEAT INDEX
  VSB - VISIBILITY



USA.gov is the U.S. government's official web portal to all federal, state and local government web resources and services.